[[{"header":{"parameterUnit":"m.s-1","parameterCategory":2,"la1":30.2991,"la2":30.254,"lo1":-89.0895,"lo2":-89.0444,"dy":0.0017,"dx":0.0017,"nx":28,"ny":28,"refTime":"2025-05-31T21:00:00:Z","depth":"0","parameterNumber":2,"parameterNumberName":"U-component_of_CURRENTS"},"data":[0,0,0,0,0,0,0,0,0,0,0,0,0,0,0,0,0,0,0,0,0,0,0,0,0,0,0,0,0,0,0,0,0,0,0,0,0,0,0,0,0,0,0,0,0,0,0,0,0,0,0,0,0,0,0,0,0,0,0.1295,0.1296,0,0.1345,0.1345,0.1345,0.1362,0.1362,0.1362,0.1363,0.1355,0.1355,0.1354,0,0,0,0,0,0,0,0,0,0,0,0,0,0.1126,0.1129,0.1294,0.1296,0.1297,0.1345,0.1345,0.1345,0.1362,0.1362,0.1363,0.1363,0.1356,0.1355,0.1354,0,0,0,0,0,0,0,0,0,0,0,0,0,0.1184,0.113,0.1294,0.1316,0.1319,0.1345,0.1345,0.1345,0.1362,0.1362,0.1363,0.1363,0.1356,0.1355,0.1354,0.1338,0,0,0.1352,0.1351,0,0,0,0,0,0,0,0,0.1181,0.1189,0.1311,0.1314,0.1318,0.1353,0.1283,0.1342,0.1361,0.1339,0.1363,0.1363,0.1353,0.1352,0.1352,0.1338,0.1337,0.1352,0.1351,0.1351,0.135,0,0,0,0,0,0,0,0.1177,0.1187,0.1308,0.1313,0.1317,0.1293,0.1302,0.1293,0.1336,0.1341,0.1344,0.1359,0.1353,0.1353,0.1352,0.1337,0.1352,0.1351,0.135,0.135,0.1323,0.1322,0,0,0,0,0,0,0.1188,0.1184,0.1307,0.131,0.1256,0.1297,0.1306,0.1336,0.1338,0.1341,0.1358,0.136,0.1354,0.1353,0.1352,0.1358,0.1351,0.135,0.135,0.1323,0.1323,0.1322,0,0,0,0,0,0,0.1184,0.1199,0.1305,0.1252,0.1265,0.13,0.1332,0.1337,0.1345,0.1353,0.1354,0.1364,0.1355,0.1353,0.1352,0.1357,0.135,0.1349,0.1323,0.1323,0.1322,0.1353,0,0,0,0,0,0,0.1179,0.1198,0.1211,0.1253,0.1268,0.1331,0.1333,0.1338,0.1357,0.1358,0.1358,0.1357,0.1355,0.1353,0.1351,0.1356,0.1348,0.1323,0.1323,0.1323,0.1353,0.1354,0.1355,0,0,0,0,0,0.1173,0.1199,0.1211,0.1226,0.129,0.1332,0.1337,0.1358,0.1356,0.1365,0.1361,0.1358,0.1349,0.1352,0.135,0.1354,0.1324,0.1323,0.1323,0.1352,0.1354,0.1355,0,0,0,0,0,0,0.1132,0.1205,0.1219,0.1265,0.13,0.1338,0.1349,0.1359,0.1362,0.1363,0.1357,0.1356,0.1356,0.1346,0.1351,0.1343,0.1334,0.1333,0.1357,0.1359,0.136,0.1403,0.1348,0,0,0,0,0,0.1131,0.117,0.1227,0.1262,0.1281,0.1311,0.1326,0.1347,0.1363,0.1366,0.1361,0.1354,0.1349,0.1349,0.1342,0.1338,0.1435,0.1337,0.1338,0.1339,0.1371,0.1539,0.1561,0.1321,0.1321,0.1321,0,0,0.1126,0.117,0.1192,0.1255,0.128,0.1314,0.132,0.1357,0.1373,0.1362,0.1366,0.1359,0.1348,0.1348,0.1347,0.1343,0.1458,0.1339,0.134,0.1372,0.1542,0.1566,0.1588,0.132,0.132,0.132,0,0,0.1148,0.1175,0.122,0.1247,0.13,0.1316,0.1329,0.1367,0.1371,0.1379,0.1373,0.1384,0.1358,0.1372,0.1369,0.1374,0.1459,0.1349,0.1395,0.1557,0.158,0.1602,0.1768,0.1804,0.1351,0.1351,0.1351,0,0.114,0.1209,0.1234,0.1278,0.1301,0.1319,0.1359,0.1363,0.139,0.1398,0.1384,0.1402,0.1381,0.1417,0.1406,0.1383,0.1496,0.1391,0.1567,0.159,0.1612,0.1776,0.1816,0.1353,0.1353,0.1352,0.1352,0,0.1204,0.1245,0.1269,0.1331,0.1346,0.1386,0.1403,0.1404,0.1401,0.1419,0.145,0.1449,0.1471,0.145,0.1422,0.1538,0.1577,0.1555,0.1577,0.1639,0.1807,0.1848,0.1355,0.1354,0.1354,0.1353,0,0,0.1242,0.1305,0.1317,0.1335,0.138,0.1398,0.141,0.1441,0.146,0.148,0.1549,0.152,0.1543,0.1544,0.1533,0.1651,0.1875,0.1664,0.1672,0.1856,0.227,0.2275,0.2321,0.1902,0.1908,0.1914,0.2332,0,0.1293,0.1369,0.1388,0.1431,0.1464,0.1458,0.1462,0.1478,0.1495,0.1556,0.1593,0.1647,0.1572,0.1608,0.1709,0.1842,0.1983,0.1766,0.2159,0.2171,0.2192,0.2368,0.2277,0.2641,0.2372,0.2379,0.2384,0,0.1371,0.1403,0.1464,0.1473,0.1485,0.15,0.1513,0.152,0.1587,0.1613,0.1691,0.1744,0.1892,0.1837,0.2142,0.2017,0.2148,0.2255,0.2273,0.2303,0.2254,0.253,0.2726,0.2574,0.2448,0.2443,0.2438,0,0.14,0.1454,0.1494,0.1505,0.1521,0.1524,0.1518,0.1544,0.1568,0.169,0.1782,0.1926,0.2062,0.2248,0.2412,0.2324,0.2795,0.2703,0.2843,0.2845,0.2858,0.2849,0.298,0.2966,0.2965,0.2964,0.2963,0,0.1463,0.1489,0.1505,0.1528,0.1535,0.1537,0.156,0.1566,0.1654,0.1748,0.1828,0.199,0.2183,0.2434,0.255,0.2852,0.2919,0.2928,0.2981,0.2861,0.2848,0.2783,0.2696,0.298,0.2977,0.2973,0.2971,0,0.1501,0.1525,0.1553,0.1564,0.1556,0.1556,0.157,0.1603,0.1679,0.184,0.1913,0.2135,0.2469,0.2664,0.302,0.3058,0.3241,0.3392,0.3236,0.3261,0.3191,0.311,0.3248,0.3171,0.3653,0.3657,0.3659,0,0.1533,0.1559,0.1565,0.1563,0.1568,0.1564,0.157,0.1608,0.1682,0.1936,0.2061,0.2406,0.2643,0.3149,0.3328,0.3622,0.3421,0.3665,0.3451,0.325,0.3199,0.2981,0.2887,0.35,0.3501,0.3502,0.3503,0,0.1565,0.1567,0.1574,0.1578,0.1584,0.1598,0.1637,0.1705,0.1818,0.1986,0.2282,0.2501,0.2959,0.3216,0.3543,0.3687,0.3452,0.369,0.3547,0.3173,0.2889,0.2816,0.3151,0.351,0.351,0.3509,0.3509,0.3508,0.1556,0.1562,0.1567,0.1576,0.159,0.1651,0.1687,0.1789,0.1934,0.2187,0.2393,0.2682,0.2994,0.3447,0.3575,0.3646,0.3568,0.3539,0.3497,0.3323,0.3114,0.3463,0.3808,0.3809,0.3809,0.381,0.3811,0,0.1525,0.1539,0.1557,0.158,0.1632,0.1643,0.1744,0.181,0.2002,0.222,0.2456,0.278,0.3035,0.3261,0.3456,0.3407,0.3246,0.3334,0.2984,0.2932,0.3342,0.3189,0.3333,0.3333,0.3333,0.3333,0.3333,0.3334,0.1497,0.1509,0.1543,0.1617,0.1657,0.1733,0.1806,0.1908,0.2038,0.2265,0.2429,0.2593,0.2851,0.3097,0.3133,0.3108,0.2834,0.2781,0.273,0.2955,0.2966,0.2976,0.2808,0.2871,0.287,0.2179,0.2174,0.2171]},{"header":{"parameterUnit":"m.s-1","parameterCategory":2,"la1":30.2991,"la2":30.254,"lo1":-89.0895,"lo2":-89.0444,"dy":0.0017,"dx":0.0017,"nx":28,"ny":28,"refTime":"2025-05-31T21:00:00:Z","depth":"0","parameterNumber":3,"parameterNumberName":"V-component_of_CURRENTS"},"data":[0,0,0,0,0,0,0,0,0,0,0,0,0,0,0,0,0,0,0,0,0,0,0,0,0,0,0,0,0,0,0,0,0,0,0,0,0,0,0,0,0,0,0,0,0,0,0,0,0,0,0,0,0,0,0,0,0,0,-0.0167,-0.0167,0,-0.0136,-0.0135,-0.0135,-0.0062,-0.0061,-0.006,-0.0059,-0.0059,-0.006,-0.0061,0,0,0,0,0,0,0,0,0,0,0,0,0,-0.01,-0.0102,-0.0167,-0.0167,-0.0167,-0.0136,-0.0135,-0.0134,-0.0063,-0.0061,-0.006,-0.0059,-0.0059,-0.006,-0.0062,0,0,0,0,0,0,0,0,0,0,0,0,0,-0.0102,-0.0103,-0.0167,-0.0131,-0.0128,-0.0136,-0.0135,-0.0134,-0.0063,-0.0061,-0.0059,-0.0058,-0.0059,-0.006,-0.0062,-0.0104,0,0,-0.0066,-0.0067,0,0,0,0,0,0,0,0,-0.0102,-0.0104,-0.0136,-0.0133,-0.013,-0.0105,-0.0112,-0.0127,-0.0063,-0.0083,-0.0059,-0.0057,-0.0082,-0.0081,-0.0072,-0.0104,-0.0104,-0.0067,-0.0068,-0.0068,-0.0069,0,0,0,0,0,0,0,-0.0102,-0.0104,-0.015,-0.0136,-0.0133,-0.0094,-0.0093,-0.0114,-0.0089,-0.0081,-0.0077,-0.0081,-0.0079,-0.0071,-0.0072,-0.0104,-0.0067,-0.0068,-0.0069,-0.0069,-0.0136,-0.0137,0,0,0,0,0,0,-0.012,-0.0105,-0.0152,-0.015,-0.0116,-0.0097,-0.0095,-0.0111,-0.0088,-0.0084,-0.0082,-0.0077,-0.0069,-0.007,-0.0072,-0.0091,-0.0068,-0.007,-0.0071,-0.0136,-0.0137,-0.0138,0,0,0,0,0,0,-0.0119,-0.0125,-0.0153,-0.0129,-0.013,-0.0101,-0.0119,-0.0112,-0.0101,-0.0089,-0.0084,-0.0079,-0.0068,-0.007,-0.0086,-0.0092,-0.007,-0.0072,-0.0135,-0.0136,-0.0137,-0.015,0,0,0,0,0,0,-0.0117,-0.0125,-0.0139,-0.0131,-0.0133,-0.0163,-0.0121,-0.0112,-0.0108,-0.0101,-0.0086,-0.0084,-0.0067,-0.0084,-0.0088,-0.0094,-0.0073,-0.0134,-0.0135,-0.0137,-0.0148,-0.0151,-0.0154,0,0,0,0,0,-0.0115,-0.0143,-0.0141,-0.0146,-0.0155,-0.0164,-0.0161,-0.013,-0.011,-0.0113,-0.0098,-0.0084,-0.0096,-0.0087,-0.0091,-0.0097,-0.0133,-0.0135,-0.0137,-0.0147,-0.0151,-0.0154,0,0,0,0,0,0,-0.0108,-0.0139,-0.0135,-0.0168,-0.0169,-0.0153,-0.016,-0.0141,-0.0131,-0.0123,-0.0103,-0.0101,-0.0114,-0.0114,-0.0104,-0.0122,-0.0111,-0.0113,-0.0117,-0.0121,-0.0123,-0.0064,-0.0074,0,0,0,0,0,-0.0121,-0.0154,-0.0165,-0.0187,-0.0199,-0.0182,-0.0182,-0.0162,-0.0155,-0.0147,-0.0139,-0.0132,-0.0128,-0.0131,-0.0133,-0.0156,-0.0102,-0.0161,-0.0164,-0.0166,-0.0121,-0.0037,-0.0027,-0.0144,-0.0144,-0.0144,0,0,-0.0119,-0.0144,-0.0158,-0.0189,-0.019,-0.0203,-0.0176,-0.0183,-0.0174,-0.0155,-0.0151,-0.0148,-0.0138,-0.0146,-0.0152,-0.0145,-0.0117,-0.0168,-0.017,-0.0123,-0.0038,-0.0026,-0.0015,-0.0145,-0.0145,-0.0145,0,0,-0.0139,-0.0164,-0.02,-0.0214,-0.0232,-0.0221,-0.0228,-0.0225,-0.0206,-0.0214,-0.0186,-0.017,-0.0197,-0.0159,-0.015,-0.0175,-0.0135,-0.0205,-0.0168,-0.0089,-0.0077,-0.0066,-0.0026,-0.0011,-0.0204,-0.0204,-0.0204,0,-0.0131,-0.0179,-0.0205,-0.0242,-0.0245,-0.0234,-0.0248,-0.0238,-0.0231,-0.0201,-0.0217,-0.017,-0.0184,-0.013,-0.0145,-0.0174,-0.0139,-0.0156,-0.0087,-0.0075,-0.0062,-0.0024,-0.0007,-0.0205,-0.0205,-0.0205,-0.0205,0,-0.0177,-0.021,-0.0234,-0.0274,-0.0281,-0.0294,-0.0289,-0.028,-0.0263,-0.0227,-0.018,-0.0171,-0.0119,-0.0148,-0.0161,-0.0089,-0.0099,-0.01,-0.0068,-0.005,-0.0013,0.0005,-0.0206,-0.0206,-0.0206,-0.0206,0,0,-0.0163,-0.0247,-0.0253,-0.0267,-0.0295,-0.0298,-0.0292,-0.0256,-0.0195,-0.0195,-0.0094,-0.0115,-0.0069,-0.0053,-0.0053,-0.0004,0.0066,-0.0026,-0.0022,0.0032,0.0217,0.0205,0.0224,0.0075,0.0079,0.0082,0.0194,0,-0.0178,-0.0245,-0.0278,-0.0301,-0.0323,-0.0312,-0.0292,-0.0253,-0.0195,-0.01,-0.005,0.0034,-0.0044,0.0008,0.0038,0.0096,0.012,0.0035,0.0178,0.0182,0.0188,0.0248,0.023,0.033,0.0212,0.0215,0.0217,0,-0.0209,-0.0243,-0.0282,-0.0294,-0.0299,-0.0302,-0.0221,-0.0201,-0.0075,-0.0014,0.0088,0.0157,0.0255,0.0187,0.0292,0.024,0.022,0.0237,0.0242,0.0267,0.0208,0.0301,0.0368,0.0135,0.0246,0.0244,0.0242,0,-0.0179,-0.024,-0.0261,-0.0275,-0.0288,-0.0275,-0.0262,-0.0166,-0.0082,0.0082,0.0224,0.031,0.044,0.0437,0.0454,0.0387,0.0576,0.0495,0.0456,0.0453,0.0492,0.0486,0.0383,0.0553,0.0553,0.0553,0.0553,0,-0.0182,-0.0198,-0.025,-0.026,-0.0244,-0.0258,-0.0177,-0.0131,0.003,0.0219,0.0286,0.0503,0.0517,0.0631,0.0551,0.0594,0.0654,0.0506,0.0508,0.0476,0.0469,0.0311,0.0201,0.0557,0.0556,0.0555,0.0555,0,-0.0152,-0.0198,-0.0216,-0.0234,-0.0239,-0.0224,-0.0148,-0.004,0.0097,0.0372,0.0459,0.0696,0.0864,0.0845,0.0902,0.0777,0.0681,0.0746,0.0689,0.0682,0.0393,0.0285,0.0316,0.0244,0.0734,0.0735,0.0736,0,-0.0147,-0.0159,-0.0192,-0.0189,-0.0203,-0.0179,-0.0119,-0.0023,0.0151,0.0528,0.0719,0.0963,0.1201,0.1255,0.1089,0.0978,0.0767,0.0828,0.0691,0.0415,0.0296,0.0228,0.0159,0.0713,0.0713,0.0713,0.0714,0,-0.0114,-0.0129,-0.0143,-0.0128,-0.0099,-0.0028,0.0087,0.0249,0.048,0.0755,0.1184,0.14,0.1474,0.1432,0.123,0.1101,0.0679,0.083,0.059,0.0328,0.0214,0.0132,0.0557,0.0717,0.0717,0.0716,0.0716,0.0716,-0.0075,-0.0077,-0.008,-0.0047,0.0007,0.0196,0.0355,0.0567,0.0892,0.1388,0.1502,0.1848,0.1636,0.1406,0.1197,0.0694,0.0723,0.0496,0.0405,0.0374,0.0257,0.0669,0.0796,0.0796,0.0797,0.0797,0.0797,0,-0.0005,-0.0005,0.0015,0.0104,0.0261,0.0267,0.0568,0.0814,0.1273,0.1589,0.1939,0.1983,0.1672,0.1279,0.0641,0.0302,0.0171,0.0097,-0.0041,-0.0079,0.0329,0.027,0.0236,0.0236,0.0236,0.0236,0.0237,0.0237,0.003,0.0069,0.0092,0.0348,0.0459,0.0771,0.1001,0.1338,0.1607,0.2046,0.2207,0.2284,0.1905,0.0753,-0.004,-0.0196,-0.0462,-0.0457,-0.0583,-0.04,-0.0373,-0.0347,-0.0433,-0.0614,-0.0615,-0.097,-0.0974,-0.0977]}],[{"header":{"parameterUnit":"m.s-1","parameterCategory":2,"la1":30.2991,"la2":30.254,"lo1":-89.0895,"lo2":-89.0444,"dy":0.0017,"dx":0.0017,"nx":28,"ny":28,"refTime":"2025-05-31T21:00:00:Z","depth":"2","parameterNumber":2,"parameterNumberName":"U-component_of_CURRENTS"},"data":[0,0,0,0,0,0,0,0,0,0,0,0,0,0,0,0,0,0,0,0,0,0,0,0,0,0,0,0,0,0,0,0,0,0,0,0,0,0,0,0,0,0,0,0,0,0,0,0,0,0,0,0,0,0,0,0,0,0,0.0908,0.0907,0,0.0797,0.0796,0.0796,0.0773,0.0774,0.0774,0.0775,0.0764,0.0764,0.0763,0,0,0,0,0,0,0,0,0,0,0,0,0,0.0962,0.0963,0.0909,0.0907,0.0905,0.0798,0.0796,0.0795,0.0773,0.0774,0.0774,0.0775,0.0765,0.0764,0.0763,0,0,0,0,0,0,0,0,0,0,0,0,0,0.0908,0.0963,0.0909,0.0878,0.0874,0.0798,0.0796,0.0795,0.0773,0.0774,0.0774,0.0775,0.0765,0.0764,0.0763,0.0743,0,0,0.076,0.0759,0,0,0,0,0,0,0,0,0.0912,0.0907,0.0884,0.088,0.0875,0.0796,0.0811,0.0781,0.0773,0.0816,0.0775,0.0775,0.0781,0.0779,0.0761,0.0742,0.0742,0.076,0.0759,0.0759,0.0758,0,0,0,0,0,0,0,0.0916,0.0911,0.0869,0.0882,0.0876,0.0821,0.0816,0.0805,0.0801,0.0812,0.0809,0.079,0.078,0.0762,0.0761,0.0742,0.076,0.0759,0.0758,0.0758,0.0799,0.0801,0,0,0,0,0,0,0.0927,0.0915,0.0872,0.0865,0.089,0.082,0.0814,0.0824,0.0799,0.0794,0.0789,0.0789,0.0763,0.0762,0.0761,0.0799,0.0759,0.0758,0.0757,0.0798,0.08,0.0802,0,0,0,0,0,0,0.093,0.0926,0.0877,0.0882,0.0872,0.0819,0.083,0.0822,0.0813,0.078,0.0777,0.079,0.0764,0.0762,0.0772,0.0797,0.0757,0.0756,0.0796,0.0798,0.0801,0.0836,0,0,0,0,0,0,0.0932,0.0928,0.0949,0.0884,0.0872,0.0835,0.0828,0.0819,0.0797,0.0797,0.0779,0.0778,0.0764,0.0774,0.0771,0.0795,0.0755,0.0793,0.0797,0.08,0.0833,0.084,0.0846,0,0,0,0,0,0.0935,0.0952,0.0951,0.0946,0.09,0.0834,0.0823,0.0789,0.0797,0.0787,0.0794,0.0779,0.0794,0.0774,0.077,0.0794,0.0792,0.0796,0.08,0.083,0.0839,0.0846,0,0,0,0,0,0,0.0969,0.0949,0.0947,0.0955,0.0901,0.0829,0.0822,0.0796,0.0789,0.0802,0.0788,0.0786,0.0808,0.0799,0.0778,0.082,0.0796,0.0799,0.082,0.0828,0.0834,0.0852,0.0754,0,0,0,0,0,0.0991,0.1015,0.0957,0.0961,0.0945,0.0889,0.0864,0.0831,0.0806,0.0803,0.0796,0.0805,0.0818,0.0822,0.0823,0.0835,0.0883,0.0855,0.0861,0.0867,0.0882,0.098,0.0997,0.0814,0.0814,0.0814,0,0,0.0998,0.0995,0.1004,0.0972,0.0941,0.0908,0.0878,0.0837,0.0821,0.0805,0.0814,0.0821,0.0827,0.0846,0.0857,0.0843,0.0949,0.0872,0.0876,0.0889,0.0986,0.1004,0.102,0.0817,0.0817,0.0816,0,0,0.101,0.1032,0.1046,0.101,0.0961,0.0926,0.0919,0.0858,0.0853,0.084,0.0849,0.0874,0.0871,0.0889,0.0898,0.0942,0.0979,0.0949,0.0991,0.1086,0.1102,0.1117,0.1219,0.1242,0.0952,0.0952,0.0952,0,0.1022,0.1035,0.1029,0.1016,0.0995,0.0942,0.0922,0.0899,0.0849,0.0873,0.0852,0.0913,0.0894,0.0961,0.0966,0.0955,0.1026,0.0955,0.1095,0.1111,0.1125,0.1226,0.1251,0.0954,0.0954,0.0954,0.0953,0,0.1041,0.1033,0.1033,0.1025,0.1002,0.0969,0.0932,0.0934,0.093,0.0913,0.0974,0.0969,0.1024,0.1011,0.0988,0.109,0.1115,0.1091,0.1074,0.1146,0.1248,0.1273,0.0957,0.0956,0.0956,0.0955,0,0,0.1106,0.1059,0.1059,0.105,0.1006,0.0987,0.0993,0.0991,0.1036,0.1013,0.1092,0.1089,0.112,0.1135,0.1137,0.1185,0.132,0.1179,0.1183,0.1279,0.1563,0.1411,0.1425,0.1334,0.1338,0.1342,0.16,0,0.1119,0.1088,0.1082,0.1059,0.1031,0.1024,0.1042,0.1043,0.1063,0.1127,0.1152,0.1208,0.1161,0.1205,0.1258,0.1307,0.1389,0.1254,0.1481,0.1488,0.1343,0.1449,0.1331,0.1536,0.1625,0.1629,0.1633,0,0.1145,0.1116,0.1094,0.1077,0.108,0.1091,0.1159,0.1159,0.1229,0.1254,0.1336,0.136,0.1451,0.1386,0.156,0.1488,0.1541,0.1562,0.1573,0.1436,0.1383,0.1476,0.1579,0.1676,0.1672,0.1669,0.1666,0,0.1171,0.1137,0.1131,0.1117,0.1094,0.1146,0.1162,0.1217,0.1251,0.1357,0.1424,0.1532,0.1621,0.1697,0.1728,0.168,0.1906,0.1854,0.1784,0.1776,0.1719,0.1695,0.1999,0.1999,0.1998,0.1997,0.1996,0,0.117,0.1163,0.1158,0.1142,0.1196,0.1183,0.127,0.1306,0.1383,0.1459,0.1514,0.1613,0.1704,0.182,0.1829,0.1892,0.2016,0.1825,0.1837,0.1725,0.17,0.1838,0.1816,0.2007,0.2005,0.2003,0.2001,0,0.116,0.1149,0.1149,0.1167,0.1194,0.1238,0.1307,0.1363,0.1441,0.1561,0.1602,0.1737,0.1866,0.1935,0.2072,0.2029,0.2076,0.2067,0.1917,0.1901,0.1872,0.1849,0.2053,0.205,0.2047,0.2045,0.2043,0,0.1131,0.1124,0.1174,0.1214,0.1235,0.1294,0.1337,0.1386,0.1441,0.1621,0.1685,0.1851,0.1927,0.2064,0.2029,0.2065,0.2079,0.1949,0.1787,0.1889,0.1881,0.1862,0.1843,0.1771,0.1767,0.1764,0.1762,0,0.1086,0.1137,0.1151,0.1224,0.1294,0.1337,0.1406,0.1445,0.1532,0.1634,0.178,0.1853,0.1969,0.1927,0.1926,0.19,0.1913,0.1875,0.2112,0.1708,0.1625,0.1615,0.1607,0.1733,0.1736,0.1738,0.174,0.1741,0.1105,0.1124,0.1185,0.1257,0.1324,0.1384,0.1412,0.1472,0.1544,0.1648,0.1761,0.1804,0.1815,0.1709,0.1683,0.1652,0.1737,0.166,0.1672,0.1687,0.154,0.1449,0.1502,0.1503,0.1504,0.1506,0.1507,0,0.1128,0.1164,0.1213,0.1305,0.135,0.1409,0.1462,0.1444,0.1506,0.1562,0.164,0.1495,0.1474,0.1482,0.1404,0.1373,0.1378,0.131,0.1337,0.1366,0.1391,0.1229,0.111,0.1108,0.1107,0.1106,0,0,0.1173,0.1213,0.122,0.1303,0.138,0.1414,0.1439,0.1406,0.1388,0.1325,0.1309,0.1388,0.1425,0.1243,0.1226,0.1174,0.1253,0.112,0.1442,0.1503,0.1527,0.1599,0.138,0,0,0,0,0]},{"header":{"parameterUnit":"m.s-1","parameterCategory":2,"la1":30.2991,"la2":30.254,"lo1":-89.0895,"lo2":-89.0444,"dy":0.0017,"dx":0.0017,"nx":28,"ny":28,"refTime":"2025-05-31T21:00:00:Z","depth":"2","parameterNumber":3,"parameterNumberName":"V-component_of_CURRENTS"},"data":[0,0,0,0,0,0,0,0,0,0,0,0,0,0,0,0,0,0,0,0,0,0,0,0,0,0,0,0,0,0,0,0,0,0,0,0,0,0,0,0,0,0,0,0,0,0,0,0,0,0,0,0,0,0,0,0,0,0,-0.0603,-0.0605,0,-0.0771,-0.0772,-0.0774,-0.0801,-0.08,-0.08,-0.0799,-0.0766,-0.0766,-0.0765,0,0,0,0,0,0,0,0,0,0,0,0,0,-0.0316,-0.0321,-0.0602,-0.0605,-0.0608,-0.0771,-0.0772,-0.0774,-0.0801,-0.08,-0.08,-0.0799,-0.0766,-0.0766,-0.0765,0,0,0,0,0,0,0,0,0,0,0,0,0,-0.045,-0.0322,-0.0602,-0.0648,-0.0654,-0.0771,-0.0772,-0.0774,-0.0801,-0.08,-0.0799,-0.0798,-0.0766,-0.0766,-0.0765,-0.0783,0,0,-0.0764,-0.0764,0,0,0,0,0,0,0,0,-0.0442,-0.0459,-0.0638,-0.0645,-0.0652,-0.0772,-0.066,-0.077,-0.0802,-0.0736,-0.0799,-0.0798,-0.0755,-0.0756,-0.0781,-0.0782,-0.078,-0.0764,-0.0764,-0.0764,-0.0764,0,0,0,0,0,0,0,-0.0433,-0.0453,-0.066,-0.0641,-0.065,-0.0665,-0.0682,-0.0681,-0.0739,-0.0742,-0.0747,-0.0779,-0.0756,-0.0781,-0.0779,-0.078,-0.0764,-0.0764,-0.0764,-0.0763,-0.0767,-0.0768,0,0,0,0,0,0,-0.0431,-0.0444,-0.0655,-0.0666,-0.0552,-0.0671,-0.069,-0.0727,-0.0744,-0.075,-0.078,-0.078,-0.0782,-0.078,-0.0778,-0.0785,-0.0764,-0.0763,-0.0763,-0.0767,-0.0768,-0.0768,0,0,0,0,0,0,-0.0424,-0.0448,-0.0649,-0.0565,-0.0593,-0.0678,-0.072,-0.0731,-0.0757,-0.0777,-0.0776,-0.0794,-0.0781,-0.0779,-0.0776,-0.0784,-0.0763,-0.0763,-0.0767,-0.0767,-0.0768,-0.0807,0,0,0,0,0,0,-0.0415,-0.0445,-0.0451,-0.0565,-0.0598,-0.0726,-0.0722,-0.0736,-0.0783,-0.0784,-0.0788,-0.0785,-0.078,-0.0776,-0.0775,-0.0783,-0.0763,-0.0766,-0.0767,-0.0768,-0.0805,-0.0808,-0.0811,0,0,0,0,0,-0.0404,-0.0432,-0.045,-0.0475,-0.061,-0.0728,-0.0745,-0.0795,-0.0784,-0.0809,-0.0799,-0.0785,-0.0779,-0.0777,-0.0775,-0.0783,-0.0766,-0.0767,-0.0768,-0.0803,-0.0808,-0.0811,0,0,0,0,0,0,-0.032,-0.0443,-0.0463,-0.0528,-0.0622,-0.0736,-0.0765,-0.0797,-0.0814,-0.0805,-0.0793,-0.079,-0.0788,-0.078,-0.0778,-0.0785,-0.0769,-0.0769,-0.0797,-0.08,-0.0804,-0.0765,-0.0762,0,0,0,0,0,-0.0304,-0.0351,-0.0476,-0.0527,-0.0574,-0.0663,-0.0708,-0.0759,-0.0805,-0.0814,-0.0815,-0.0805,-0.0794,-0.0792,-0.0788,-0.0796,-0.0762,-0.0798,-0.0801,-0.0804,-0.0771,-0.0746,-0.0744,-0.077,-0.077,-0.077,0,0,-0.029,-0.0361,-0.0388,-0.0511,-0.0581,-0.0663,-0.0686,-0.0778,-0.0818,-0.0803,-0.0825,-0.0816,-0.0797,-0.0806,-0.0804,-0.0799,-0.0782,-0.0805,-0.0807,-0.0772,-0.0747,-0.0744,-0.0742,-0.0771,-0.0771,-0.0771,0,0,-0.0311,-0.0347,-0.0406,-0.048,-0.0603,-0.0661,-0.0687,-0.0803,-0.0817,-0.0862,-0.0841,-0.0832,-0.0844,-0.0825,-0.0815,-0.083,-0.0798,-0.0836,-0.0825,-0.0803,-0.08,-0.0797,-0.0763,-0.0757,-0.0841,-0.0841,-0.0841,0,-0.0284,-0.0375,-0.044,-0.0522,-0.057,-0.0658,-0.0728,-0.0774,-0.0864,-0.0844,-0.087,-0.0828,-0.0848,-0.0793,-0.0824,-0.0836,-0.0811,-0.0816,-0.0806,-0.0802,-0.0798,-0.0764,-0.0757,-0.0843,-0.0843,-0.0843,-0.0843,0,-0.0364,-0.0428,-0.0472,-0.0584,-0.0637,-0.0721,-0.0799,-0.0819,-0.084,-0.0873,-0.0832,-0.0844,-0.0793,-0.0829,-0.0846,-0.0813,-0.0801,-0.0813,-0.0795,-0.0798,-0.0762,-0.0754,-0.0846,-0.0845,-0.0845,-0.0844,0,0,-0.0336,-0.0492,-0.0507,-0.0543,-0.067,-0.0721,-0.0755,-0.0796,-0.0747,-0.0824,-0.0746,-0.0792,-0.076,-0.0743,-0.0741,-0.0761,-0.0764,-0.0789,-0.0787,-0.0752,-0.07,-0.081,-0.0811,-0.0779,-0.0777,-0.0776,-0.0691,0,-0.0378,-0.0513,-0.0568,-0.0652,-0.0722,-0.075,-0.0744,-0.0771,-0.0764,-0.071,-0.071,-0.0661,-0.0734,-0.0691,-0.0716,-0.0726,-0.074,-0.0784,-0.0703,-0.07,-0.0795,-0.0805,-0.0708,-0.0636,-0.0682,-0.0681,-0.068,0,-0.0448,-0.0517,-0.0616,-0.0646,-0.0663,-0.0688,-0.0621,-0.0638,-0.0583,-0.056,-0.0505,-0.0494,-0.048,-0.0562,-0.0561,-0.0582,-0.0642,-0.0684,-0.0682,-0.0754,-0.0794,-0.0637,-0.0617,-0.0665,-0.0666,-0.0667,-0.0668,0,-0.0419,-0.0535,-0.059,-0.0623,-0.068,-0.0642,-0.0631,-0.0579,-0.0533,-0.0446,-0.0383,-0.0345,-0.0306,-0.0361,-0.0481,-0.0504,-0.0505,-0.0533,-0.0674,-0.068,-0.0564,-0.0566,-0.0547,-0.0547,-0.0547,-0.0547,-0.0548,0,-0.0457,-0.05,-0.0564,-0.06,-0.0556,-0.0592,-0.0497,-0.046,-0.0371,-0.0285,-0.0285,-0.021,-0.0267,-0.0287,-0.0401,-0.051,-0.043,-0.0655,-0.0668,-0.0582,-0.0585,-0.058,-0.0585,-0.0544,-0.0545,-0.0546,-0.0546,0,-0.0459,-0.0529,-0.0568,-0.0581,-0.0567,-0.0523,-0.0447,-0.0364,-0.0289,-0.0161,-0.0134,-0.0099,-0.0159,-0.024,-0.0328,-0.0407,-0.0509,-0.0582,-0.0486,-0.0494,-0.0703,-0.0711,-0.0669,-0.0672,-0.0675,-0.0677,-0.0679,0,-0.0483,-0.0519,-0.0532,-0.0505,-0.0507,-0.0449,-0.0391,-0.0333,-0.0248,-0.011,-0.0045,-0.0062,-0.0077,-0.0232,-0.0372,-0.0522,-0.0612,-0.0565,-0.0626,-0.07,-0.0716,-0.072,-0.0724,-0.0462,-0.0462,-0.0462,-0.0462,0,-0.0476,-0.0477,-0.0491,-0.0448,-0.0395,-0.0339,-0.0255,-0.0194,-0.0096,0.0003,0.0098,0.0092,-0.004,-0.0167,-0.0402,-0.0513,-0.0531,-0.0579,-0.0618,-0.0502,-0.0514,-0.0528,-0.0536,-0.0462,-0.0462,-0.0462,-0.0462,-0.0462,-0.0416,-0.0405,-0.0399,-0.0358,-0.0292,-0.0209,-0.015,-0.0061,0.0047,0.0242,0.0209,0.0259,0.0096,-0.0184,-0.0374,-0.0559,-0.0602,-0.0635,-0.0629,-0.0624,-0.0671,-0.0694,-0.0681,-0.0682,-0.0683,-0.0684,-0.0685,0,-0.0326,-0.0325,-0.0293,-0.0235,-0.0164,-0.0134,-0.0036,0.0044,0.0168,0.033,0.0432,0.0333,0.0162,-0.0088,-0.0323,-0.0505,-0.0451,-0.0597,-0.046,-0.046,-0.046,-0.0494,-0.0459,-0.0459,-0.0459,-0.0459,0,0,-0.0253,-0.0226,-0.0245,-0.0133,-0.0071,0.0036,0.0093,0.0224,0.0332,0.049,0.056,0.0611,0.0262,0.0134,-0.0123,-0.0283,-0.0321,-0.0312,-0.047,-0.0276,-0.0273,-0.0461,-0.0514,0,0,0,0,0]}],[{"header":{"parameterUnit":"m.s-1","parameterCategory":2,"la1":30.2991,"la2":30.254,"lo1":-89.0895,"lo2":-89.0444,"dy":0.0017,"dx":0.0017,"nx":28,"ny":28,"refTime":"2025-05-31T21:00:00:Z","depth":"4","parameterNumber":2,"parameterNumberName":"U-component_of_CURRENTS"},"data":[0,0,0,0,0,0,0,0,0,0,0,0,0,0,0,0,0,0,0,0,0,0,0,0,0,0,0,0,0,0,0,0,0,0,0,0,0,0,0,0,0,0,0,0,0,0,0,0,0,0,0,0,0,0,0,0,0,0,0.0062,0.0062,0,0.0088,0.0089,0.0089,0.0135,0.0136,0.0136,0.0137,0.0187,0.0188,0.0189,0,0,0,0,0,0,0,0,0,0,0,0,0,0.013,0.0128,0.0062,0.0062,0.0062,0.0088,0.0089,0.0089,0.0135,0.0136,0.0136,0.0137,0.0187,0.0188,0.0189,0,0,0,0,0,0,0,0,0,0,0,0,0,0.0125,0.0127,0.0062,0.0086,0.0088,0.0088,0.0089,0.0089,0.0135,0.0136,0.0137,0.0137,0.0187,0.0188,0.0189,0.0178,0,0,0.0193,0.0193,0,0,0,0,0,0,0,0,0.0125,0.0123,0.0082,0.0084,0.0087,0.0107,0.0131,0.0119,0.0135,0.012,0.0137,0.0138,0.016,0.0163,0.017,0.0181,0.0183,0.0193,0.0193,0.0194,0.0194,0,0,0,0,0,0,0,0.0125,0.0122,0.0075,0.0082,0.0085,0.0122,0.0122,0.0129,0.0137,0.0122,0.0124,0.0122,0.0162,0.0169,0.0172,0.0183,0.0193,0.0194,0.0194,0.0195,0.0258,0.0259,0,0,0,0,0,0,0.011,0.0122,0.0074,0.0076,0.0105,0.0119,0.0119,0.0102,0.0137,0.0142,0.0121,0.0124,0.0166,0.017,0.0174,0.0238,0.0194,0.0195,0.0196,0.0257,0.0258,0.0259,0,0,0,0,0,0,0.0112,0.0105,0.0073,0.0099,0.0097,0.0116,0.0097,0.0102,0.0126,0.0136,0.0142,0.0142,0.0167,0.0172,0.02,0.0238,0.0196,0.0197,0.0256,0.0257,0.0259,0.0319,0,0,0,0,0,0,0.0113,0.0105,0.0095,0.0097,0.0094,0.0081,0.0096,0.0101,0.0121,0.0126,0.0156,0.016,0.0168,0.0198,0.0201,0.0238,0.0198,0.0255,0.0257,0.0258,0.0315,0.0322,0.0328,0,0,0,0,0,0.0115,0.0094,0.0094,0.0089,0.0076,0.0081,0.0084,0.0104,0.0121,0.0131,0.0158,0.016,0.0212,0.02,0.0203,0.0242,0.0254,0.0256,0.0258,0.0313,0.0321,0.0327,0,0,0,0,0,0,0.0123,0.0097,0.0097,0.007,0.0078,0.0088,0.0094,0.0111,0.0139,0.0152,0.0168,0.0174,0.0214,0.0212,0.0198,0.0264,0.0235,0.0238,0.0276,0.0283,0.0289,0.0304,0.0199,0,0,0,0,0,0.0115,0.0089,0.0085,0.0066,0.007,0.0086,0.0094,0.011,0.013,0.0144,0.0171,0.0197,0.0221,0.024,0.0255,0.0286,0.0287,0.0313,0.032,0.0325,0.0338,0.0349,0.0357,0.0266,0.0266,0.0266,0,0,0.0108,0.0094,0.0077,0.0066,0.0074,0.009,0.0095,0.011,0.015,0.0144,0.0209,0.0217,0.0232,0.0274,0.0292,0.0282,0.0355,0.0328,0.0332,0.0343,0.0352,0.0361,0.0369,0.0268,0.0268,0.0267,0,0,0.0094,0.0075,0.0059,0.0069,0.0081,0.0096,0.0104,0.0131,0.0172,0.0222,0.0232,0.0261,0.0304,0.0323,0.0338,0.0382,0.0382,0.039,0.0442,0.0452,0.0459,0.0466,0.0495,0.0504,0.0399,0.0399,0.0399,0,0.0095,0.007,0.006,0.0066,0.0087,0.0102,0.0126,0.0163,0.0206,0.0253,0.0254,0.0325,0.0333,0.0384,0.0407,0.0399,0.0408,0.0414,0.046,0.0467,0.0473,0.0501,0.051,0.0402,0.0402,0.0401,0.0401,0,0.0078,0.0073,0.0071,0.0082,0.0108,0.0123,0.0174,0.0231,0.0283,0.0321,0.0395,0.0401,0.0442,0.0452,0.045,0.05,0.0495,0.0462,0.0443,0.0486,0.0512,0.0521,0.0406,0.0405,0.0404,0.0404,0,0,0.0042,0.0055,0.0055,0.0083,0.0124,0.0147,0.0233,0.0311,0.0377,0.0428,0.0506,0.0546,0.0544,0.0557,0.0547,0.0564,0.0617,0.0541,0.054,0.0574,0.066,0.062,0.0625,0.059,0.0592,0.0593,0.0668,0,0.0039,0.0048,0.0069,0.0117,0.0138,0.021,0.0289,0.0372,0.0443,0.0519,0.0555,0.0597,0.0584,0.0593,0.0614,0.0609,0.0639,0.0601,0.0611,0.0612,0.0573,0.0632,0.0597,0.0674,0.0676,0.0678,0.0679,0,0.0018,0.0033,0.0067,0.0156,0.0177,0.0229,0.037,0.0435,0.0549,0.06,0.0653,0.0665,0.0709,0.067,0.0714,0.0691,0.0692,0.0687,0.0689,0.0636,0.0587,0.0618,0.0693,0.0692,0.0691,0.069,0.0689,0,-0.0006,0.0041,0.0073,0.0096,0.0192,0.0273,0.0346,0.0471,0.0545,0.0634,0.0682,0.0725,0.0755,0.0757,0.0779,0.0742,0.0826,0.0762,0.0735,0.0732,0.0718,0.0709,0.0797,0.0797,0.0797,0.0797,0.0796,0,-0.0019,0.0008,0.0072,0.0094,0.0181,0.0265,0.0377,0.0463,0.0573,0.0655,0.07,0.0747,0.0779,0.0834,0.0817,0.0826,0.086,0.0767,0.0752,0.0743,0.0737,0.0725,0.0715,0.0799,0.0799,0.0798,0.0798,0,-0.005,-0.0026,0.0015,0.012,0.0167,0.0231,0.0386,0.0461,0.0565,0.0672,0.0698,0.079,0.0839,0.0887,0.091,0.0883,0.0878,0.0874,0.0911,0.0893,0.0765,0.0758,0.0824,0.0824,0.0823,0.0823,0.0822,0,-0.0067,-0.0056,0.002,0.0052,0.0108,0.0216,0.03,0.0437,0.0514,0.0688,0.073,0.0828,0.0879,0.0897,0.0918,0.0919,0.0894,0.0913,0.0795,0.0791,0.077,0.0763,0.0757,0.0821,0.0821,0.0821,0.0821,0,-0.009,-0.0076,-0.0045,0.0012,0.0091,0.018,0.0316,0.0362,0.0533,0.0641,0.0741,0.0785,0.0855,0.0855,0.0904,0.0882,0.0902,0.0905,0.0904,0.0792,0.0787,0.0766,0.076,0.0819,0.0819,0.0819,0.0819,0,-0.0113,-0.0112,-0.0085,-0.0021,0.0057,0.0139,0.0209,0.0334,0.0427,0.0637,0.0663,0.076,0.0853,0.0839,0.0862,0.0869,0.0809,0.0768,0.0772,0.0775,0.072,0.0705,0.0719,0,0,0,0,0,-0.0129,-0.013,-0.0102,-0.0048,0.0025,0.0091,0.0226,0.0298,0.0468,0.0526,0.0605,0.0664,0.0716,0.0735,0.0719,0.0792,0.079,0.0769,0.0737,0.0807,0.0809,0.0748,0,0,0,0,0,0,-0.0147,-0.0141,-0.0127,-0.0071,-0.0028,0.0065,0.0147,0.0254,0.0292,0.0455,0.0463,0.0614,0.0635,0.071,0.07,0.0714,0.0678,0.0838,0.0836,0.0805,0.0808,0.081,0.0747,0,0,0,0,0]},{"header":{"parameterUnit":"m.s-1","parameterCategory":2,"la1":30.2991,"la2":30.254,"lo1":-89.0895,"lo2":-89.0444,"dy":0.0017,"dx":0.0017,"nx":28,"ny":28,"refTime":"2025-05-31T21:00:00:Z","depth":"4","parameterNumber":3,"parameterNumberName":"V-component_of_CURRENTS"},"data":[0,0,0,0,0,0,0,0,0,0,0,0,0,0,0,0,0,0,0,0,0,0,0,0,0,0,0,0,0,0,0,0,0,0,0,0,0,0,0,0,0,0,0,0,0,0,0,0,0,0,0,0,0,0,0,0,0,0,0.0224,0.0224,0,0.0217,0.0216,0.0216,0.0141,0.0139,0.0138,0.0136,0.0026,0.0024,0.0023,0,0,0,0,0,0,0,0,0,0,0,0,0,0.0169,0.0171,0.0224,0.0224,0.0224,0.0217,0.0216,0.0216,0.0142,0.0139,0.0137,0.0135,0.0026,0.0025,0.0023,0,0,0,0,0,0,0,0,0,0,0,0,0,0.018,0.0171,0.0224,0.0187,0.0184,0.0217,0.0216,0.0216,0.0142,0.0139,0.0137,0.0134,0.0027,0.0025,0.0023,0.0063,0,0,0.0017,0.0016,0,0,0,0,0,0,0,0,0.0179,0.0181,0.0193,0.019,0.0186,0.0178,0.0157,0.016,0.0143,0.0157,0.0136,0.0133,0.007,0.0065,0.0068,0.0058,0.0054,0.0017,0.0016,0.0015,0.0014,0,0,0,0,0,0,0,0.0178,0.0181,0.022,0.0193,0.0189,0.0169,0.0168,0.0157,0.0125,0.0155,0.015,0.0152,0.0067,0.0071,0.0065,0.0052,0.0017,0.0015,0.0014,0.0013,-0.0046,-0.0046,0,0,0,0,0,0,0.0186,0.0181,0.022,0.022,0.0178,0.0173,0.0171,0.0182,0.0127,0.0118,0.0154,0.0149,0.0075,0.0067,0.0061,0.0037,0.0015,0.0013,0.0012,-0.0045,-0.0046,-0.0046,0,0,0,0,0,0,0.0185,0.019,0.0221,0.02,0.0203,0.0176,0.019,0.0184,0.017,0.0128,0.0115,0.0145,0.0073,0.0063,0.0042,0.0034,0.0012,0.001,-0.0045,-0.0045,-0.0046,0.0033,0,0,0,0,0,0,0.0184,0.019,0.0202,0.0202,0.0204,0.0234,0.0193,0.0186,0.0177,0.0169,0.0117,0.0105,0.007,0.0045,0.004,0.0031,0.0009,-0.0044,-0.0045,-0.0046,0.0031,0.0035,0.0039,0,0,0,0,0,0.0182,0.0204,0.0204,0.0208,0.0223,0.0235,0.0235,0.0205,0.0179,0.0182,0.0144,0.0106,0.0035,0.0045,0.0038,0.0029,-0.0044,-0.0045,-0.0046,0.0029,0.0035,0.0039,0,0,0,0,0,0,0.0172,0.0199,0.0198,0.0223,0.0229,0.0222,0.0229,0.021,0.0187,0.0175,0.0123,0.011,0.0081,0.0048,0.006,0.0005,-0.0019,-0.0021,0.004,0.0044,0.0048,0.0018,0.0007,0,0,0,0,0,0.0185,0.0218,0.0225,0.0247,0.0254,0.0244,0.0246,0.023,0.0212,0.0198,0.0167,0.0121,0.008,0.0057,0.0026,0.0015,-0.0033,-0.0005,-0.0001,0.0003,-0.0028,-0.0092,-0.0096,-0.0049,-0.0049,-0.0049,0,0,0.0185,0.0208,0.0222,0.025,0.0254,0.0274,0.0237,0.0247,0.0256,0.0193,0.0193,0.0144,0.0081,0.0059,0.0041,0.0027,-0.0028,0.0002,0.0006,-0.0029,-0.0093,-0.0098,-0.0102,-0.005,-0.0049,-0.0049,0,0,0.0214,0.0227,0.0266,0.0278,0.0297,0.0296,0.0298,0.0299,0.0287,0.029,0.0231,0.0177,0.0145,0.0085,0.005,0.0058,-0.0001,0.0043,0.0038,-0.0021,-0.0026,-0.003,-0.0059,-0.0068,0.0041,0.0042,0.0042,0,0.0208,0.0262,0.0275,0.0311,0.0324,0.0307,0.0336,0.0334,0.0325,0.0303,0.0294,0.0187,0.015,0.0073,0.0067,0.0066,0.0028,0.0034,-0.0015,-0.0021,-0.0027,-0.0057,-0.0067,0.0045,0.0045,0.0044,0.0044,0,0.0269,0.0303,0.0324,0.0371,0.0388,0.0409,0.0413,0.0416,0.04,0.0368,0.0302,0.0244,0.0149,0.0145,0.0109,0.0032,0.0021,0.0007,-0.0022,-0.0027,-0.0057,-0.0069,0.0051,0.0049,0.0048,0.0047,0,0,0.0272,0.0352,0.0358,0.039,0.042,0.0441,0.0459,0.0451,0.0421,0.0394,0.0334,0.0262,0.0177,0.0127,0.0067,0.0021,-0.0029,-0.0009,-0.0014,-0.0029,-0.0147,-0.0079,-0.0086,-0.0052,-0.0054,-0.0056,-0.0135,0,0.0309,0.0385,0.0421,0.0482,0.0512,0.0514,0.0526,0.0509,0.0464,0.0403,0.0309,0.0217,0.0185,0.0111,0.0062,-0.0023,-0.0065,-0.0006,-0.0151,-0.0156,-0.0087,-0.0099,-0.0065,-0.0145,-0.0147,-0.015,-0.0151,0,0.0362,0.04,0.047,0.0527,0.0541,0.0579,0.0567,0.0555,0.0458,0.0403,0.0278,0.0188,0.0067,0.0055,-0.0091,-0.0056,-0.0111,-0.0149,-0.0153,-0.0139,-0.0112,-0.0152,-0.0173,-0.0172,-0.017,-0.0168,-0.0167,0,0.036,0.0442,0.0501,0.0521,0.0571,0.0606,0.0608,0.0546,0.0505,0.0351,0.0288,0.0134,0.0044,-0.0056,-0.0135,-0.014,-0.0255,-0.027,-0.0253,-0.0248,-0.032,-0.0314,-0.0369,-0.0369,-0.0369,-0.0369,-0.0368,0,0.039,0.0435,0.0512,0.0538,0.0594,0.0606,0.0598,0.0567,0.0466,0.0405,0.0251,0.0186,0.0009,-0.0068,-0.0146,-0.0222,-0.0271,-0.0272,-0.0276,-0.0278,-0.0267,-0.0325,-0.0319,-0.0372,-0.0371,-0.037,-0.037,0,0.0387,0.044,0.0496,0.0562,0.0602,0.0615,0.0624,0.0585,0.0482,0.0397,0.034,0.0196,0.0087,-0.0032,-0.0178,-0.0224,-0.0308,-0.0313,-0.0281,-0.0279,-0.0265,-0.0254,-0.0351,-0.035,-0.0348,-0.0347,-0.0346,0,0.0401,0.0428,0.0508,0.0547,0.0596,0.0619,0.0637,0.0584,0.0546,0.0434,0.0415,0.0277,0.0187,0.0019,-0.0094,-0.0246,-0.0252,-0.0308,-0.0328,-0.0275,-0.0269,-0.026,-0.0251,-0.0344,-0.0344,-0.0344,-0.0343,0,0.0388,0.041,0.0445,0.0523,0.0588,0.0625,0.066,0.0629,0.056,0.0516,0.0432,0.0308,0.0208,0.0051,-0.0056,-0.0153,-0.0293,-0.0296,-0.0301,-0.032,-0.0268,-0.0262,-0.0254,-0.0339,-0.034,-0.034,-0.034,0,0.0361,0.037,0.0415,0.0486,0.0562,0.0609,0.0621,0.062,0.0577,0.0491,0.0497,0.0347,0.0272,0.0107,0.0027,-0.0084,-0.0131,-0.0187,-0.0199,-0.0205,-0.0129,-0.0039,-0.0059,0,0,0,0,0,0.0324,0.0329,0.0384,0.0447,0.0519,0.0576,0.0638,0.0635,0.0622,0.057,0.0516,0.0428,0.0245,0.017,0.0064,0.0047,-0.0144,-0.0078,-0.0213,-0.0315,-0.032,-0.0249,0,0,0,0,0,0,0.0295,0.0324,0.0351,0.0404,0.0446,0.0522,0.0558,0.0563,0.0534,0.0514,0.042,0.0399,0.0229,0.0291,0.0053,0.0026,-0.0073,-0.0148,-0.015,-0.0312,-0.0317,-0.0321,-0.025,0,0,0,0,0]}]]